Location: Rayville (historical)
(39.9992°N, 99.6815°W)
Time: 06:24:49
(UTC+00:00)

SL-4 R/B - Pass Details

Date: 18 February 2020
Orbit: 428 x 667 km, 51.6° (Epoch: 09 April)

Event Time Altitude Azimuth Distance (km) Brightness Sun altitude
Rises 01:11:57 0° 309° (NW) 2,992 6.5 -11.2°
Reaches altitude 10° 01:14:31 10° 318° (NW) 2,060 5.5 -11.7°
Maximum altitude 01:18:54 36° 25° (NNE) 1,005 3.1 -12.6°
Enters shadow 01:21:28 20° 80° (E) 1,436 3.5 -13.1°
